Overview Statistics Trail Chart Weather Telemetry Raw packets
 

This is the latest recevied weather packets stored in our database for station/object KH6DH-13. If no packets are shown the sender has not sent any weather packets the latest 10 day(s).

<< 21 22 23 24 25 26 27 >>
Time Temp. Humidity Pressure Rain* Wind** Luminosity Snow
1788351086 25° C - - 0 mm 0.45 m/s, 149° - -
1788350485 25.56° C - - 0 mm 0.89 m/s, 167° - -
1788349884 25.56° C - - 0 mm 0.45 m/s, 117° - -
1788349283 25.56° C - - 0 mm 0 m/s - -
1788348682 25° C - - 0 mm 0.45 m/s, 83° - -
1788348081 25.56° C - - 0 mm 1.79 m/s, 11° - -
1788347480 25.56° C - - 0 mm 0 m/s - -
1788346879 25° C - - 0 mm 0 m/s - -
1788346278 25.56° C - - 0 mm 0.89 m/s, 183° - -
1788345677 25.56° C - - 0 mm 0.45 m/s, 31° - -
1788345076 25.56° C - - 0 mm 0.89 m/s, 79° - -
1788344475 25.56° C - - 0 mm 0.89 m/s, 359° - -
1788343874 25.56° C - - 0 mm 0.45 m/s, 31° - -
1788343273 25.56° C - - 0 mm 1.34 m/s, 11° - -
1788342672 25.56° C - - 0 mm 0.45 m/s, 24° - -
1788342071 26.11° C - - 0 mm 0.45 m/s, 350° - -
1788341481 25.56° C - - 0 mm 2.24 m/s, 17° - -
1788340869 25.56° C - - 0 mm 1.79 m/s, 20° - -
1788340268 25.56° C - - 0 mm 1.34 m/s, 23° - -
1788339667 25° C - - 0 mm 1.79 m/s, 359° - -
1788339066 25.56° C - - 0 mm 0.89 m/s, 69° - -
1788338465 25.56° C - - 0 mm 2.68 m/s, 96° - -
1788337864 25.56° C - - 0.25 mm 2.68 m/s, 39° - -
1788337263 25.56° C - - 0.25 mm 2.68 m/s, 98° - -
1788336662 25.56° C - - 0.25 mm 0.89 m/s, 35° - -

* Rain latest hour (hover to see other rain measurements)
** Current wind speed in m/s (hover to see current wind gust speed)